Weather in Derbent

Russia / Republic of Dagestan     42˚03′27″N   48˚17′19″E
temp.,
°C
wind,
m/s
gust,
m/s
humid.,
%
clouds,
%
prec.,
mm/h
press.,
hPa
HPBL,
m
1 december, tue
tue100:00+5˚ssw2293100 0.6 1026160
03:00+3˚s128962 0.6 102575
06:00+3˚sw117954 0.0 102543
09:00+6˚e117076 0.1 1025146
12:00+6˚ene2394100 1.3 1024203
15:00+7˚ene3497100 3.2 1023233
18:00+6˚wnw2389100 0.4 1024145
21:00+5˚wnw338478 0.4 102581
2 december, wed
wed200:00+5˚wnw337979 0.0 102581
03:00+5˚wnw337761 0.0 102575
06:00+5˚wnw237942 0.0 102681
09:00+8˚wnw237022 0.0 1027143
12:00+8˚ne339070 0.4 1026326
15:00+7˚e239583 2.2 1026195
18:00+7˚e3393100 1.4 1028199
21:00+7˚ese3394100 2.1 1029250
3 december, thu
thu300:00+6˚ese3494100 0.3 1029274
03:00+6˚ese2392100 0.6 1030275
06:00+6˚se3490100 0.2 1030290
09:00+6˚ese3489100 0.3 1031401
12:00+6˚se3488100 0.1 1030411
15:00+6˚se3487100 0.2 1029430
18:00+6˚se3590100 0.0 1031381
21:00+6˚sse3591100 0.1 1030385
4 december, fri
fri400:00+6˚sse3692100 0.1 1030371
03:00+6˚se4791100 0.4 1029475
06:00+6˚se4791100 0.5 1029462
09:00+6˚se5790100 0.9 1029482
12:00+6˚se5789100 0.4 1028554
15:00+6˚se5691100 1.1 1027493
18:00+6˚se5695100 1.4 1028425
21:00+6˚se4695100 2.8 1028381
5 december, sat
sat500:00+6˚se3495100 1.3 1028289
03:00+6˚ese3496100 2.5 1027248
06:00+7˚e3597100 3.0 1027297
09:00+7˚e3597100 6.1 1028294
12:00+7˚se4495100 2.6 1027330
15:00+6˚ese5796100 4.9 1026404
18:00+6˚ese5696100 1.1 1027389
21:00+6˚ese5696100 2.6 1028399